Regional Weather Roundup
Issued by NWS Little Rock, AR

Home | Current Version | Previous Version | Text Only | Print | Product List | Glossary On
Versions: 1 2 3 4 5 6 7 8 9 10 11 12 13 14 15 16 17 18 19 20 21 22 23 24 25 26 27 28 29 30 31 32 33 34 35 36 37 38 39 40 41 42 43 44 45 46 47 48 49 50
000
ASUS44 KLZK 250805
RWRLZK

WEATHER ROUNDUP FOR ARKANSAS
NATIONAL WEATHER SERVICE LITTLE ROCK AR
300 AM CDT SAT APR 25 2015

NOTE: "FAIR" INDICATES FEW OR NO CLOUDS BELOW 12,000 FEET WITH NO
SIGNIFICANT WEATHER AND/OR OBSTRUCTIONS TO VISIBILITY.

ARZ001-003-010-029-250900-
NORTHWEST ARKANSAS

CITY           SKY/WX    TMP DP  RH WIND       PRES   REMARKS
FAYETTEVILLE   CLEAR     60  59  96 S14       29.58F
FORT SMITH     FOG       60  58  92 E3        29.60F VSB 1
HARRISON       LGT RAIN  60  58  92 S15G22    29.58F
BENTONVILLE    CLEAR    N/A N/A N/A S8        29.57F
ROGERS         CLEAR     60  57  89 S14       29.57F
SILOAM SPGS    CLEAR    N/A N/A N/A S17       29.57F
HIGHFILL       CLEAR     60  56  86 S15       29.56F
$$

ARZ004-005-016-250900-
NORTH CENTRAL ARKANSAS

CITY           SKY/WX    TMP DP  RH WIND       PRES   REMARKS
BATESVILLE     CLOUDY    61  59  94 SW7       29.62F
FLIPPIN        CLOUDY    61  57  88 SE5       29.58F
MTN HOME       CLOUDY    59  58  96 S9        29.59F
$$

ARZ040-041-250900-
WEST CENTRAL ARKANSAS

CITY           SKY/WX    TMP DP  RH WIND       PRES   REMARKS
MENA           CLOUDY    63  61  94 CALM      29.68F
MOUNT IDA      MOCLDY    62  59  90 CALM      29.64F
$$

ARZ009-017-025-026-028-250900-
NORTHEAST ARKANSAS

CITY           SKY/WX    TMP DP  RH WIND       PRES   REMARKS
CORNING          N/A     57  57 100 E5        29.64F FOG
JONESBORO      CLOUDY    58  58 100 S7        29.62S
NEWPORT        CLOUDY    61  61 100 S7        29.64F
WALNUT RIDGE   CLOUDY    57  55  94 E3        29.63F
BLYTHEVILLE    CLOUDY    59  58  96 VRB3G21   29.64F
$$

ARZ022-023-033-042-044-250900-
CENTRAL ARKANSAS

CITY           SKY/WX    TMP DP  RH WIND       PRES   REMARKS
LITTLE ROCK    CLOUDY    62  59  90 SW7       29.66R
N LITTLE ROCK    N/A     61  61 100 SW7       29.66R
JACKSONVILLE   CLOUDY    62  62  99 SW8       29.65R
SEARCY         CLOUDY    62  60  93 SW10G16   29.66S
HOT SPRINGS    CLOUDY    61  60  97 CALM      29.67F
RUSSELLVILLE   CLOUDY    61  60  97 E3        29.63F
CLINTON        CLOUDY    59  59 100 SW3       29.66F FOG
$$

ARZ036-250900-
EAST ARKANSAS

CITY           SKY/WX    TMP DP  RH WIND       PRES   REMARKS
WEST MEMPHIS   CLOUDY    61  61 100 S20       29.60F
$$

ARZ050-053-066-070-073-250900-
SOUTHWEST ARKANSAS

CITY           SKY/WX    TMP DP  RH WIND       PRES   REMARKS
ARKADELPHIA    FOG       62  62 100 CALM      29.68F VSB 1/2
CAMDEN         CLOUDY    59  57  94 CALM      29.68F
TEXARKANA      CLOUDY    62  61  96 SW7       29.67F
EL DORADO      CLOUDY    62  60  93 S7        29.70F
DE QUEEN       CLOUDY    62  61  96 CALM      29.66F FOG
$$

ARZ056-057-069-250900-
SOUTHEAST ARKANSAS

CITY           SKY/WX    TMP DP  RH WIND       PRES   REMARKS
PINE BLUFF     CLOUDY    61  60  97 S5        29.67F
STUTTGART      CLOUDY    61  57  88 S12       29.66R
MONTICELLO     CLOUDY    63  62  97 S8        29.70R

$$




USA.gov is the U.S. government's official web portal to all federal, state and local government web resources and services.